When you browse on this site, cookies collect data to enhance your experience and personalize the content and advertising you see.
Visit our Privacy Policy to learn more. By continuing to use the site, you agree to this use of cookies and data.
  • In Austria
  • List of Countries
  • For 7 days
  • Water Temperature
  • Weather Map
  • News
  • Weather Widgets
  • user-avatar
    Login

    Hourly Weather Zastav'je

    Today, 23 August, Friday

    Time Temperature Precipitation Wind Pressure Humidity
    00:00 +16°C° 0.1 mm 2 mps 741 mmHg 91%
    01:00 +16°C° 0.1 mm 2 mps 741 mmHg 93%
    02:00 +16°C° 0 mm 2 mps 741 mmHg 94%
    03:00 +16°C° 0.5 mm 2 mps 741 mmHg 95%
    04:00 +15°C° 0.5 mm 2 mps 741 mmHg 95%
    05:00 +15°C° 0.5 mm 2 mps 741 mmHg 96%
    06:00 +16°C° 0.1 mm 2 mps 741 mmHg 93%
    07:00 +17°C° 0.1 mm 3 mps 742 mmHg 90%
    08:00 +18°C° 0 mm 3 mps 742 mmHg 86%
    09:00 +19°C° 0 mm 3 mps 742 mmHg 79%
    10:00 +21°C° 0 mm 3 mps 742 mmHg 72%
    11:00 +22°C° 0 mm 3 mps 742 mmHg 65%
    12:00 +24°C° 0 mm 3 mps 742 mmHg 63%
    13:00 +25°C° 0 mm 3 mps 742 mmHg 60%
    14:00 +25°C° 0 mm 3 mps 742 mmHg 56%
    15:00 +25°C° 0 mm 3 mps 742 mmHg 58%
    16:00 +24°C° 0 mm 3 mps 741 mmHg 59%
    17:00 +24°C° 0 mm 3 mps 741 mmHg 60%
    18:00 +22°C° 0 mm 3 mps 741 mmHg 65%
    19:00 +20°C° 0 mm 3 mps 741 mmHg 69%
    20:00 +18°C° 0 mm 2 mps 741 mmHg 74%
    21:00 +17°C° 0 mm 2 mps 741 mmHg 75%
    22:00 +17°C° 0 mm 2 mps 741 mmHg 76%
    23:00 +16°C° 0 mm 2 mps 741 mmHg 77%

    Tomorrow, 24 August, Saturday

    Time Temperature Precipitation Wind Pressure Humidity
    00:00 +16°C° 0 mm 2 mps 741 mmHg 79%
    01:00 +15°C° 0 mm 2 mps 741 mmHg 80%
    02:00 +15°C° 0 mm 2 mps 741 mmHg 81%
    03:00 +15°C° 0 mm 2 mps 741 mmHg 83%
    04:00 +14°C° 0 mm 2 mps 741 mmHg 85%
    05:00 +14°C° 0 mm 2 mps 741 mmHg 87%
    06:00 +15°C° 0 mm 2 mps 741 mmHg 83%
    07:00 +16°C° 0 mm 2 mps 741 mmHg 80%
    08:00 +18°C° 0 mm 3 mps 741 mmHg 77%
    09:00 +19°C° 0 mm 3 mps 741 mmHg 71%
    10:00 +21°C° 0 mm 3 mps 741 mmHg 65%
    11:00 +24°C° 0 mm 3 mps 741 mmHg 59%
    12:00 +24°C° 0 mm 3 mps 741 mmHg 57%
    13:00 +25°C° 0 mm 3 mps 740 mmHg 55%
    14:00 +26°C° 0 mm 3 mps 740 mmHg 52%
    15:00 +26°C° 0 mm 3 mps 740 mmHg 54%
    16:00 +26°C° 0 mm 3 mps 740 mmHg 56%
    17:00 +25°C° 0 mm 3 mps 739 mmHg 57%
    18:00 +24°C° 0 mm 3 mps 739 mmHg 63%
    19:00 +21°C° 0 mm 3 mps 739 mmHg 68%
    20:00 +19°C° 0 mm 3 mps 740 mmHg 73%
    21:00 +18°C° 0 mm 3 mps 740 mmHg 76%
    22:00 +18°C° 0 mm 3 mps 740 mmHg 78%
    23:00 +17°C° 0 mm 3 mps 740 mmHg 81%

    Day after tomorrow, 25 August, Sunday

    Time Temperature Precipitation Wind Pressure Humidity
    00:00 +17°C° 0 mm 3 mps 740 mmHg 83%
    01:00 +16°C° 0 mm 3 mps 740 mmHg 85%
    02:00 +16°C° 0 mm 3 mps 740 mmHg 86%
    03:00 +16°C° 0 mm 3 mps 739 mmHg 86%
    04:00 +16°C° 0 mm 3 mps 739 mmHg 86%
    05:00 +14°C° 0 mm 3 mps 739 mmHg 85%
    06:00 +17°C° 0 mm 3 mps 739 mmHg 81%
    07:00 +18°C° 0 mm 3 mps 739 mmHg 77%
    08:00 +19°C° 0 mm 3 mps 740 mmHg 74%
    09:00 +20°C° 0 mm 4 mps 740 mmHg 70%
    10:00 +22°C° 0 mm 4 mps 740 mmHg 66%
    11:00 +25°C° 0 mm 4 mps 740 mmHg 62%
    12:00 +26°C° 0 mm 4 mps 740 mmHg 60%
    13:00 +27°C° 0 mm 4 mps 740 mmHg 58%
    14:00 +27°C° 0 mm 4 mps 739 mmHg 56%
    15:00 +27°C° 0 mm 4 mps 739 mmHg 58%
    16:00 +27°C° 0 mm 4 mps 739 mmHg 60%
    17:00 +27°C° 0 mm 4 mps 739 mmHg 61%
    18:00 +25°C° 0 mm 4 mps 739 mmHg 64%
    19:00 +22°C° 0 mm 4 mps 739 mmHg 66%
    20:00 +21°C° 0 mm 5 mps 739 mmHg 68%
    21:00 +20°C° 0 mm 4 mps 739 mmHg 67%
    22:00 +20°C° 0 mm 4 mps 739 mmHg 65%
    23:00 +19°C° 0 mm 4 mps 740 mmHg 64%

    26 August, Monday

    Time Temperature Precipitation Wind Pressure Humidity
    00:00 +19°C° 0 mm 4 mps 740 mmHg 61%
    01:00 +19°C° 0 mm 3 mps 739 mmHg 58%
    02:00 +19°C° 0 mm 3 mps 739 mmHg 55%
    03:00 +18°C° 0 mm 3 mps 739 mmHg 56%
    04:00 +17°C° 0 mm 3 mps 739 mmHg 57%
    05:00 +17°C° 0 mm 3 mps 739 mmHg 58%
    06:00 +18°C° 0 mm 4 mps 739 mmHg 58%
    07:00 +19°C° 0 mm 4 mps 739 mmHg 59%
    08:00 +20°C° 0 mm 4 mps 739 mmHg 60%
    09:00 +21°C° 0 mm 4 mps 739 mmHg 56%
    10:00 +23°C° 0 mm 4 mps 739 mmHg 53%
    11:00 +26°C° 0 mm 5 mps 739 mmHg 49%
    12:00 +27°C° 0 mm 5 mps 739 mmHg 48%
    13:00 +28°C° 0 mm 5 mps 739 mmHg 47%
    14:00 +28°C° 0 mm 4 mps 739 mmHg 45%
    15:00 +28°C° 0 mm 4 mps 739 mmHg 47%
    16:00 +28°C° 0 mm 4 mps 738 mmHg 50%
    17:00 +27°C° 0 mm 3 mps 738 mmHg 52%
    18:00 +26°C° 0 mm 3 mps 738 mmHg 55%
    19:00 +24°C° 0 mm 3 mps 738 mmHg 59%
    20:00 +21°C° 0 mm 3 mps 738 mmHg 62%
    21:00 +20°C° 0 mm 3 mps 738 mmHg 66%
    22:00 +20°C° 0 mm 3 mps 738 mmHg 69%
    23:00 +19°C° 0 mm 4 mps 738 mmHg 72%

    27 August, Tuesday

    Time Temperature Precipitation Wind Pressure Humidity
    00:00 +18°C° 0 mm 3 mps 738 mmHg 73%
    01:00 +18°C° 0 mm 3 mps 738 mmHg 73%
    02:00 +17°C° 0 mm 3 mps 738 mmHg 74%
    03:00 +17°C° 0 mm 3 mps 738 mmHg 75%
    04:00 +16°C° 0 mm 3 mps 738 mmHg 75%
    05:00 +16°C° 0 mm 3 mps 738 mmHg 75%
    06:00 +17°C° 0 mm 3 mps 738 mmHg 73%
    07:00 +18°C° 0 mm 3 mps 738 mmHg 70%
    08:00 +20°C° 0 mm 3 mps 738 mmHg 67%
    09:00 +22°C° 0 mm 3 mps 738 mmHg 62%
    10:00 +25°C° 0 mm 3 mps 738 mmHg 56%
    11:00 +27°C° 0 mm 3 mps 739 mmHg 50%
    12:00 +27°C° 0 mm 3 mps 738 mmHg 47%
    13:00 +28°C° 0 mm 2 mps 738 mmHg 44%
    14:00 +29°C° 0 mm 2 mps 738 mmHg 40%
    15:00 +29°C° 0 mm 2 mps 738 mmHg 41%
    16:00 +29°C° 0 mm 2 mps 738 mmHg 42%
    17:00 +29°C° 0 mm 1 mps 738 mmHg 43%
    18:00 +27°C° 0 mm 2 mps 738 mmHg 48%
    19:00 +25°C° 0 mm 2 mps 738 mmHg 53%
    20:00 +21°C° 0 mm 3 mps 738 mmHg 58%
    21:00 +21°C° 0 mm 3 mps 738 mmHg 62%
    22:00 +20°C° 0 mm 3 mps 738 mmHg 66%
    23:00 +19°C° 0 mm 3 mps 738 mmHg 71%

    28 August, Wednesday

    Time Temperature Precipitation Wind Pressure Humidity
    00:00 +18°C° 0 mm 2 mps 738 mmHg 71%
    01:00 +18°C° 0 mm 2 mps 738 mmHg 71%
    02:00 +18°C° 0 mm 2 mps 738 mmHg 71%
    03:00 +17°C° 0 mm 2 mps 738 mmHg 70%
    04:00 +17°C° 0 mm 2 mps 738 mmHg 70%
    05:00 +17°C° 0 mm 2 mps 737 mmHg 69%
    06:00 +18°C° 0 mm 3 mps 738 mmHg 67%
    07:00 +19°C° 0 mm 3 mps 738 mmHg 65%
    08:00 +21°C° 0 mm 3 mps 738 mmHg 63%
    09:00 +22°C° 0 mm 3 mps 738 mmHg 58%
    10:00 +25°C° 0 mm 3 mps 738 mmHg 52%
    11:00 +27°C° 0 mm 4 mps 738 mmHg 47%
    12:00 +28°C° 0 mm 3 mps 737 mmHg 46%
    13:00 +29°C° 0 mm 3 mps 737 mmHg 44%
    14:00 +29°C° 0 mm 3 mps 737 mmHg 42%
    15:00 +29°C° 0 mm 3 mps 736 mmHg 45%
    16:00 +28°C° 0 mm 3 mps 736 mmHg 47%
    17:00 +28°C° 0 mm 3 mps 736 mmHg 49%
    18:00 +26°C° 0 mm 3 mps 736 mmHg 54%
    19:00 +24°C° 0 mm 3 mps 736 mmHg 58%
    20:00 +21°C° 0 mm 4 mps 736 mmHg 62%
    21:00 +20°C° 0 mm 4 mps 736 mmHg 66%
    22:00 +20°C° 0 mm 4 mps 736 mmHg 70%
    23:00 +19°C° 0 mm 4 mps 736 mmHg 74%
    Show more